Location: Castillon
(43.0896°N, 0.2156°E)
Time: 19:23:34
(UTC+00:00)

GP-B - Pass Details

Date: 16 June 2021
Orbit: 631 x 634 km, 89.8° (Epoch: 23 July)

Event Time Altitude Azimuth Distance (km) Brightness Sun altitude
Rises 23:30:18 0° 11° (N) 2,941 7.8 -23.2°
Reaches altitude 10° 23:32:44 10° 21° (NNE) 2,027 6.5 -23.2°
Maximum altitude 23:36:45 33° 85° (E) 1,078 4.2 -23.3°
Enters shadow 23:37:02 32° 93° (E) 1,084 4.2 -23.3°
